Regional Weather Roundup
Issued by NWS

Home | Current Version | Previous Version | Graphics & Text | Print | Product List | Glossary On
Versions: 1 2 3 4 5 6 7 8 9 10 11 12 13 14 15 16 17 18 19 20 21 22 23 24 25 26 27 28 29 30 31 32 33 34 35 36 37 38 39 40 41 42 43 44 45 46 47 48 49 50
000
ASUS43 KFSD 100902
RWRSD

WEATHER ROUNDUP FOR SOUTH DAKOTA
NATIONAL WEATHER SERVICE SIOUX FALLS SD
300 AM CST SAT DEC 10 2016

NOTE: "FAIR" INDICATES FEW OR NO CLOUDS BELOW 12,000 FEET WITH NO
SIGNIFICANT WEATHER AND/OR OBSTRUCTIONS TO VISIBILITY.


SDZ001>005-009-010-012>017-101000-
NORTHWEST AND NORTH CENTRAL SOUTH DAKOTA

CITY           SKY/WX    TMP DP  RH WIND       PRES   REMARKS
BUFFALO          N/A     -1  -6  79 SE10      30.10F WCI -17
FAITH            N/A     -4  -6  91 SE9       30.27F WCI -20
MOBRIDGE       CLOUDY    -5 -12  72 E7        30.41S WCI -19
$$

SDZ012>016-024>037-041>051-057-063-072>074-101000-
SOUTHWEST AND SOUTH CENTRAL SOUTH DAKOTA

CITY           SKY/WX    TMP DP  RH WIND       PRES   REMARKS
RAPID CTY ARPT LGT SNOW   3  -2  79 SE15      30.16F WCI -16
PIERRE         CLOUDY    -2  -8  76 E8        30.41F WCI -17
CUSTER         CLOUDY    12   8  84 SW3       29.95F
ELLSWORTH AFB  FLURRIES   3  -1  82 SE14      30.14  WCI -15
PHILIP         LGT SNOW   1  -2  87 E10       30.32F FOG     WCI -15
PINE RIDGE     CLOUDY     7   2  80 E7        30.14F WCI  -5
SPEARFISH      CLOUDY     1  -2  85 CALM      30.04F
WINNER         FLURRIES   6   2  83 E7        30.37F WCI  -6
$$

SDZ004>011-016>023-039-040-101000-
NORTHEAST SOUTH DAKOTA

CITY           SKY/WX    TMP DP  RH WIND       PRES   REMARKS
ABERDEEN       CLOUDY    -7 -15  68 N8        30.52S WCI -23
WATERTOWN      CLOUDY    -4  -7  87 N3        30.43S
SISSETON         N/A     -9 -14  78 N7        30.51F WCI -24
$$

SDZ017-020-022-023-036>040-048>070-101000-
SOUTHEAST SOUTH DAKOTA

CITY           SKY/WX    TMP DP  RH WIND       PRES   REMARKS
SIOUX FALLS    CLOUDY    10   6  84 NE5       30.46R WCI   2
HURON          CLOUDY     0  -4  83 N7        30.49F WCI -13
CHAMBERLAIN    FLURRIES   4   0  83 E6        30.42F WCI  -7
MITCHELL       PTCLDY     7   2  80 N6        30.49F WCI  -3
YANKTON        CLOUDY    10   5  79 NW8       30.46S WCI  -1
$$

ABBREVIATIONS USED IN REMARKS
   TC - TEMPERATURE IN CELSIUS
  WCI - WIND CHILL INDEX
   HX - HEAT INDEX
  VSB - VISIBILITY




USA.gov is the U.S. government's official web portal to all federal, state and local government web resources and services.